Simultaneous Nadir Overpasses (SNOs) Predictions

Prediction of SNOs between METOP-B and NOAA-19 Satellite Orbit:

Table of predicted SNOs for the next 14.0 days since TLE Epoch: 1/20/2017
Index Date (METOP-B) Time (METOP-B) Lat,Lon (METOP-B) SZA (METOP-B ) Date (NOAA-19) Time (NOAA-19) Lat,Lon (NOAA-19) SZA (NOAA-19 ) Distance(km) Time Diff (sec)
1 01/25/2017 22:38:24 77.16,-154.76 95.83 01/25/2017 22:37:18 77.20,-158.21 95.87 85.32 66
2 01/25/2017 23:29:15 -76.75, 10.90 84.61 01/25/2017 23:28:12 -76.76, 10.98 84.60 2.22 63
3 01/26/2017 00:19:55 76.75, 178.21 95.38 01/26/2017 00:19:09 76.75, 178.27 95.39 1.53 46
4 01/26/2017 01:10:37 -76.73, -14.52 84.65 01/26/2017 01:10:13 -76.72, -14.39 84.65 3.46 24
5 01/26/2017 02:01:17 76.73, 152.79 95.35 01/26/2017 02:01:10 76.72, 152.90 95.34 3.04 7
6 01/26/2017 02:51:59 -76.71, -39.94 84.69 01/26/2017 02:52:15 -76.73, -39.94 84.66 2.73 16
7 01/26/2017 03:42:39 76.71, 127.38 95.31 01/26/2017 03:43:12 76.73, 127.36 95.33 2.32 33
8 01/26/2017 04:33:21 -76.69, -65.36 84.72 01/26/2017 04:34:16 -76.70, -65.31 84.71 1.93 55
9 01/26/2017 05:24:01 76.69, 101.96 95.27 01/26/2017 05:25:13 76.69, 101.99 95.28 1.24 72




NCC Satellite Simultaneous Nadir Overpasses (SNOs) Prediction Service
